Presure
316 193 309 309 353 362 321 343 373 307 282 262 275 256 264 267 259 219 226 226 210 197 195 189 180 178 170 157 158 156 174 172 172 170 173 169 177 173 133 92 100 160 99 164 163
209 251 312 301 327 331 335 337 327 354 293 279 269 270 258 264 261 251 224 232 204 236 201 194 179 177 181 179 179 167 164 171 172 180 181 185 158 118 90 171 172 167 118 120 133
289 273 306 305 333 345 336 346 329 323 294 309 281 281 262 265 257 253 252 216 170 226 225 211 192 190 175 177 177 173 152 176 171 182 183 178 170 167 162 167 160 107 172 89 161
282 187 318 311 351 338 325 325 335 318 332 292 289 278 268 257 252 279 251 249 214 221 221 225 213 183 180 186 185 185 173 158 152 151 144 161 154 172 176 173 170 176 178 164 99
292 295 218 310 320 350 330 322 313 327 308 329 283 283 267 263 242 242 268 250 244 211 219 202 227 215 215 225 212 195 184 164 167 177 175 170 166 176 171 170 161 185 185 176 175
283 261 329 257 105 335 312 324 320 306 317 301 304 278 280 258 243 238 260 265 246 239 211 219 213 180 214 201 213 196 221 178 184 160 157 164 170 172 165 173 177 181 179 177 169
322 319 347 366 342 332 328 314 319 315 315 299 299 283 283 255 250 241 251 251 261 247 233 204 213 212 166 210 192 200 193 178 197 179 174 175 172 166 170 176 169 177 157 173 156
325 357 371 319 309 282 300 86 310 327 299 311 296 298 287 272 253 255 248 248 266 253 240 223 209 208 213 214 207 217 197 189 174 179 178 177 171 183 178 186 184 170 167 72 185
322 368 320 479 618 567 274 209 293 307 319 292 303 293 308 289 268 267 259 239 250 261 247 251 219 211 197 213 208 206 204 203 197 192 183 178 183 188 189 186 189 200 192 176 174
368 332 456 473 497 540 499 582 327 295 307 301 312 297 287 324 280 266 245 244 243 244 256 247 240 218 210 198 209 206 212 205 197 198 192 205 197 188 188 194 200 200 200 183 187
340 459 523 529 532 528 515 536 570 473 295 293 311 301 275 294 280 276 267 247 245 247 239 250 247 239 222 211 204 208 203 207 208 206 195 195 198 200 203 198 202 198 188 190 205
342 473 492 468 462 490 480 504 489 528 468 283 300 298 273 272 318 277 278 273 257 250 241 236 237 245 237 229 203 201 197 207 208 209 210 207 197 189 200 187 189 191 200 199 191
506 461 446 433 459 457 474 493 530 540 507 275 296 294 270 276 296 280 268 271 257 257 246 240 231 241 237 238 238 215 205 200 205 206 207 198 199 198 194 197 203 192 203 201 198
466 436 438 434 427 446 477 432 519 532 500 273 290 277 283 274 273 291 266 261 269 249 254 247 243 243 244 239 240 245 221 207 204 207 203 207 208 205 199 198 199 201 204 204 201
449 426 424 418 412 418 467 450 494 465 409 274 285 274 277 274 260 263 326 317 261 266 241 245 235 233 231 238 247 246 247 228 213 212 208 207 213 195 193 189 190 197 200 202 205
441 435 415 447 430 413 470 465 453 408 266 272 268 279 272 277 262 263 269 308 274 257 243 259 243 239 242 241 240 240 247 247 243 219 210 207 198 191 195 200 204 206 207 207 210
421 423 445 444 453 452 476 485 432 391 308 225 267 268 271 266 263 263 297 306 297 257 247 241 256 246 239 228 236 240 234 246 244 243 233 215 205 194 196 195 202 204 207 205 207
420 434 425 452 465 471 482 453 375 355 304 266 258 257 265 252 263 258 286 291 294 295 255 255 257 255 255 238 239 254 254 240 237 240 245 249 236 215 95 216 214 216 220 222 223
430 460 456 488 482 390 384 343 348 340 292 261 257 268 248 261 251 291 285 279 281 283 291 288 263 259 255 260 251 244 242 253 261 259 241 238 237 233 229 236 246 246 239 225 230
446 474 508 488 387 358 353 328 324 328 274 258 259 262 251 243 277 278 270 266 269 275 275 282 291 293 290 298 298 294 284 285 288 289 278 249 239 233 234 240 238 244 218 247 246
463 477 530 373 360 355 335 329 322 291 258 249 262 241 247 268 270 270 265 263 264 264 260 260 263 262 265 260 265 268 266 263 259 261 261 256 248 243 232 232 238 240 240 242 246
505 495 375 360 349 341 338 330 318 266 255 259 254 255 265 277 268 267 260 255 250 249 248 247 249 253 248 249 247 248 250 252 253 252 250 252 233 237 233 220 223 229 245 267 270
494 383 364 346 357 342 333 327 305 261 259 244 237 254 273 270 257 246 243 240 236 233 232 233 236 233 231 227 229 233 233 229 219 214 217 218 226 255 248 248 249 243 219 291 301
396 370 348 352 346 340 342 325 268 247 247 239 248 280 267 255 243 239 237 235 232 230 230 228 223 221 223 220 217 219 241 261 256 254 243 239 233 229 227 262 293 285 279 270 391
381 358 350 356 343 343 334 270 258 239 239 240 260 265 254 247 239 235 233 232 234 236 231 223 214 255 261 257 257 256 247 240 231 223 216 228 258 246 269 261 197 260 238 273 155
375 374 365 349 341 333 273 255 255 242 239 230 269 255 241 235 237 237 236 231 226 218 278 274 265 254 248 251 240 227 221 214 209 245 240 236 245 228 250 257 256 251 265 278 287
376 361 367 361 324 313 272 208 242 240 233 231 264 251 244 238 239 235 233 221 246 280 278 258 259 241 229 219 218 207 216 226 242 237 219 244 230 237 253 256 228 223 247 264 258
Wind_Speed
58 42 49 39 34 32 35 38 40 78 77 74 78 78 81 87 91 89 94 101 106 106 105 102 94 95 88 83 82 79 74 82 90 93 97 88 82 76 70 25 40 80 42 70 69
48 60 51 45 38 34 35 40 45 55 78 81 79 80 80 80 88 89 96 95 90 95 108 108 97 92 93 93 91 79 75 85 92 92 94 90 77 42 44 89 82 79 49 55 64
69 72 51 48 40 41 38 42 47 48 66 76 83 85 83 82 82 93 91 93 75 93 98 110 105 107 93 94 91 83 81 93 90 92 89 84 79 78 81 84 88 51 79 38 79
76 57 53 47 38 42 42 41 47 53 51 71 80 81 84 82 82 81 90 93 95 94 94 95 107 98 98 104 102 101 90 82 83 78 71 80 80 77 82 84 85 82 82 82 40
78 71 42 54 44 41 45 45 46 53 57 58 77 85 84 82 82 87 85 93 98 94 95 95 90 99 99 92 105 100 98 87 90 90 86 87 83 81 81 84 82 84 84 83 85
83 60 58 47 68 43 42 48 50 51 58 61 72 81 87 84 84 85 81 93 96 98 96 97 94 81 96 99 97 98 92 94 100 86 83 85 86 85 85 84 82 86 88 87 85
72 66 58 49 54 51 44 48 53 54 55 62 65 85 84 87 87 87 85 85 90 95 98 94 97 94 73 97 91 97 96 93 103 99 91 92 86 84 87 86 81 86 81 87 87
76 75 69 59 51 57 59 16 53 56 59 62 66 67 82 88 89 92 87 83 79 91 96 100 94 93 92 92 93 87 98 98 92 95 96 92 89 98 92 97 97 86 83 18 93
85 81 75 61 34 50 52 41 60 58 60 63 68 64 58 88 86 88 86 87 82 84 90 96 99 96 87 90 92 92 92 98 102 103 94 90 98 104 98 96 97 94 92 92 93
91 83 72 57 45 30 39 25 79 66 64 70 69 67 62 60 85 89 89 88 87 85 84 90 92 97 95 88 92 96 89 96 95 97 100 86 96 105 98 97 92 89 87 95 99
91 72 33 22 22 22 22 20 22 53 68 70 65 60 61 59 82 81 92 88 89 85 85 82 84 89 101 97 92 92 89 89 91 91 97 96 91 89 91 88 85 88 92 94 80
91 53 24 26 26 19 18 15 26 31 63 63 62 61 64 65 61 82 75 84 87 84 87 84 82 89 90 95 92 90 86 92 89 87 84 88 88 90 87 87 90 85 84 83 84
34 40 33 32 22 17 11 9 12 28 53 61 63 58 66 63 55 76 74 74 84 84 85 86 86 83 84 87 94 98 94 88 89 88 87 88 85 88 91 87 85 88 84 83 84
39 36 30 23 21 19 2 15 11 28 58 66 62 59 60 56 55 55 70 73 77 81 83 83 81 80 80 82 84 85 96 95 92 89 85 87 84 86 86 87 86 86 84 86 84
32 35 28 25 21 14 4 19 24 47 64 64 59 54 55 55 52 51 47 59 78 76 78 85 83 82 81 77 75 80 85 96 94 92 88 86 85 86 83 83 82 83 85 85 86
33 28 34 26 17 10 9 23 39 67 43 61 53 51 48 48 46 42 39 51 75 73 75 68 83 81 78 75 77 79 79 83 89 95 91 90 76 79 87 88 86 85 88 91 93
41 35 26 23 10 6 16 33 57 69 66 31 47 45 45 43 40 37 34 35 52 70 74 73 73 81 80 77 77 77 78 76 80 85 92 93 86 84 86 82 82 83 88 89 94
44 33 29 21 3 13 30 51 64 69 60 53 48 43 42 41 36 36 33 32 37 46 72 72 72 72 74 76 74 75 76 81 78 79 80 80 86 94 18 93 97 100 102 102 100
44 32 27 6 14 50 50 59 54 65 58 51 46 41 41 33 32 31 32 33 33 38 41 51 66 70 68 71 72 69 70 71 75 80 76 75 75 79 83 87 90 93 94 92 98
36 26 17 18 53 46 59 61 56 60 53 45 37 38 33 32 29 33 34 32 33 35 33 37 39 45 47 45 48 52 53 50 50 50 56 72 73 76 80 82 83 86 76 92 96
24 21 15 49 49 55 56 59 55 53 44 37 38 39 33 30 34 35 34 33 32 31 33 31 32 35 35 35 35 37 40 40 45 47 51 59 65 73 73 72 77 82 85 90 93
14 16 50 46 51 52 52 52 53 49 41 35 30 24 26 34 34 33 32 30 29 28 27 27 27 26 25 29 31 33 33 34 38 41 47 47 58 63 64 69 73 78 81 82 88
22 42 40 37 46 52 51 53 50 43 38 33 30 25 30 30 29 26 27 27 27 27 28 27 25 25 27 29 30 30 30 33 36 41 42 47 53 48 53 60 64 64 52 61 64
46 34 28 44 44 44 51 51 45 40 35 30 25 29 29 31 31 30 29 28 29 27 25 25 23 23 25 27 29 30 24 20 24 24 30 36 43 51 53 45 34 35 37 45 50
37 23 36 36 45 47 47 42 43 35 33 30 25 30 29 28 27 27 26 25 24 24 24 20 22 23 23 21 20 18 19 20 24 29 38 40 26 40 25 28 32 21 43 37 23
27 41 43 34 45 39 45 38 40 36 33 31 28 32 33 31 29 28 25 21 19 18 25 23 24 27 25 21 19 21 21 25 30 16 25 34 33 36 21 29 16 15 26 33 41
15 18 27 37 33 44 40 7 35 33 31 28 28 31 29 28 25 23 21 21 22 26 26 27 27 24 20 20 19 23 22 20 17 20 24 17 18 16 22 17 19 33 15 31 30
Wind_Direction
335 319 325 316 292 266 263 252 248 228 230 231 231 228 230 226 227 227 229 229 230 234 235 236 234 235 236 235 233 233 240 238 238 240 242 241 243 242 242 253 248 248 231 244 248
329 330 323 315 299 284 266 254 244 238 229 229 231 228 229 227 226 225 226 230 230 229 233 233 234 235 237 240 239 235 234 240 238 238 241 244 241 236 252 246 245 246 244 242 245
333 332 322 314 299 282 271 251 249 242 230 232 230 227 226 228 226 225 225 227 236 230 229 232 234 236 237 237 238 237 231 241 239 240 241 243 241 242 242 246 245 254 247 253 245
332 312 319 312 293 279 271 260 246 242 237 228 225 227 224 227 226 228 225 225 227 229 229 231 235 235 238 241 242 240 235 234 238 240 243 245 243 245 246 245 248 247 249 248 250
329 325 319 310 299 281 266 260 249 242 237 234 227 227 225 224 223 228 225 225 223 228 228 231 230 233 236 233 238 239 237 236 240 243 243 244 245 246 247 248 250 254 254 251 251
328 317 316 307 291 280 268 255 251 243 238 234 228 224 224 223 222 226 230 224 223 222 229 229 230 233 233 237 235 238 235 237 240 238 239 243 244 247 248 250 251 254 255 254 253
325 320 314 300 290 282 263 256 248 243 236 233 230 224 222 223 222 226 227 226 226 223 223 230 231 232 235 234 236 239 237 235 241 241 243 246 247 247 249 251 248 252 248 255 252
326 324 314 308 294 283 276 307 248 241 236 230 230 225 222 224 222 225 225 227 227 224 223 224 230 231 233 233 235 234 236 239 238 239 242 245 248 251 251 254 255 249 249 241 259
329 321 317 303 294 279 275 270 250 238 232 231 227 225 221 221 221 222 222 223 226 224 224 223 226 230 231 233 234 236 234 237 241 242 245 247 251 253 253 255 257 256 256 256 257
328 324 309 304 293 288 270 275 238 240 228 230 224 219 218 219 221 219 220 221 222 225 226 223 225 226 231 233 234 235 235 236 240 241 245 244 247 253 253 255 256 257 257 258 261
331 317 313 309 303 293 289 271 258 228 232 227 224 216 218 222 216 222 218 221 221 221 225 228 224 225 226 230 234 237 238 239 239 239 242 244 245 247 249 252 253 256 260 261 259
332 325 316 318 310 319 284 266 235 215 208 223 220 211 214 217 214 217 222 219 219 220 222 225 227 226 225 226 232 237 239 239 239 240 241 241 244 249 250 253 256 256 256 255 258
327 331 331 323 333 316 310 331 238 199 187 212 213 207 212 214 213 211 217 217 217 217 221 223 226 229 228 228 226 230 235 239 241 241 241 245 244 247 251 254 253 257 257 257 258
330 333 334 332 328 327 92 191 221 181 173 205 205 204 212 212 212 213 217 219 221 219 218 222 227 231 232 232 232 232 232 238 241 243 243 245 246 248 250 254 255 257 259 260 261
335 335 331 323 314 331 239 190 176 166 162 198 201 200 206 210 210 211 211 212 219 221 221 221 224 227 228 231 233 232 233 233 238 242 245 246 245 251 251 254 257 259 261 263 264
342 339 332 324 300 272 219 167 160 153 185 195 194 196 202 205 209 210 215 211 213 217 218 222 223 227 230 230 232 233 234 236 237 239 243 247 249 251 256 256 258 260 262 265 266
343 339 338 334 282 249 184 155 150 153 186 189 189 193 196 200 205 208 207 206 212 216 220 221 224 225 227 230 232 234 236 238 239 240 240 244 250 252 254 260 263 263 262 262 264
343 340 348 333 55 147 150 149 154 166 180 176 186 186 192 198 202 205 201 195 203 211 219 222 225 224 227 231 234 237 239 239 240 241 243 245 247 248 214 253 257 259 260 261 262
340 344 343 30 128 128 127 134 158 170 170 176 180 183 190 191 195 197 185 190 195 206 212 220 224 226 231 233 237 240 241 243 243 244 246 249 250 251 254 255 256 257 260 261 264
344 0 19 114 128 135 135 154 160 168 162 169 173 180 179 185 186 184 181 186 192 198 200 209 213 221 226 228 232 236 239 241 243 245 246 247 251 253 255 258 262 265 264 266 266
354 23 74 132 133 139 151 155 164 156 158 161 170 175 178 182 180 182 182 185 188 189 194 201 204 208 214 219 227 232 236 238 242 244 246 246 251 254 259 264 265 266 266 266 267
12 81 133 138 145 148 150 157 163 152 159 164 163 170 179 175 179 177 175 176 177 184 189 198 203 207 210 219 224 229 234 238 243 246 249 252 254 259 262 262 264 268 271 274 274
106 132 143 144 149 153 155 161 159 148 149 151 160 166 174 174 170 165 170 176 182 188 195 202 208 212 217 223 230 236 239 243 245 248 255 255 256 255 263 268 272 275 281 285 286
142 140 138 148 155 152 159 159 143 143 143 149 152 169 167 167 173 176 177 181 188 197 202 208 211 220 226 228 232 238 232 214 228 234 246 246 255 260 264 281 302 301 300 304 311
145 148 154 148 159 158 160 143 143 146 147 147 155 160 159 166 171 176 181 186 192 199 205 207 214 192 186 192 201 192 205 215 232 241 253 263 266 275 293 296 283 311 296 329 296
154 161 164 163 160 162 151 149 148 151 150 155 158 159 164 169 177 180 182 182 183 192 189 186 175 171 181 185 186 203 218 234 248 242 252 262 271 285 285 301 301 321 353 7 16
172 169 158 168 161 160 162 65 148 150 154 159 159 161 163 171 175 177 177 178 185 183 179 164 162 171 182 199 208 234 237 241 225 247 279 289 298 288 313 311 291 293 360 29 28